Starlink 31846

operational
NORAD ID: 60126 Int'l Des: 2024-118 Owner: SPXS Country: US Constellation: starlink
LEOCIRCULAR

关于 Starlink 31846

正在加载描述...

实时位置

正在加载3D地球...

即将过境

高度历史

Altitude vs Time

uPlot chart will show altitude changes over time

两行轨道根数

1 60126U 24118P 25351.30709926 -.00001109 00000-0 -25344-4 0 9998
2 60126 53.1607 49.3487 0001122 100.5266 259.5861 15.30192410 83081
Epoch: Dec 17, 2025 • Age: 6 hours

当前状态

高度 480.5 km
速度 7.63 km/s
星下点 -17.74°S, 104.78°E
发射日期 Jun 24, 2024
运行时间 1.4 years
类型 internet

技术详情

分类 Payload
质量 730.00 kg
干质量 700.00 kg
总质量 730.00 kg
长度 0.30 m
直径 4.10 m
跨度 29.00 m
形状 Box + pan
制造商 SPXS
平台类型 Starlink V2M
阶段状态 In Orbit
所有者/国家 SPXS/US

大型星座

Loading constellations...